[[{"header":{"parameterUnit":"m.s-1","parameterCategory":2,"la1":30.2991,"la2":30.254,"lo1":-89.0895,"lo2":-89.0444,"dy":0.0017,"dx":0.0017,"nx":28,"ny":28,"refTime":"2024-02-17T09:00:00:Z","depth":"0","parameterNumber":2,"parameterNumberName":"U-component_of_CURRENTS"},"data":[0,0,0,0,0,0,0,0,0,0,0,0,0,0,0,0,0,0,0,0,0,0,0,0,0,0,0,0,0,0,0,0,0,0,0,0,0,0,0,0,0,0,0,0,0,0,0,0,0,0,0,0,0,0,0,0,0,0,0.2251,0.2252,0,0.2287,0.2287,0.2287,0.2279,0.2279,0.2278,0.2278,0.2274,0.2274,0.2274,0,0,0,0,0,0,0,0,0,0,0,0,0,0.2164,0.2165,0.2251,0.2252,0.2253,0.2287,0.2287,0.2287,0.2279,0.2279,0.2278,0.2278,0.2274,0.2274,0.2274,0,0,0,0,0,0,0,0,0,0,0,0,0,0.2197,0.2166,0.2251,0.2256,0.2257,0.2287,0.2287,0.2287,0.2279,0.2279,0.2278,0.2278,0.2274,0.2274,0.2274,0.2284,0,0,0.2275,0.2275,0,0,0,0,0,0,0,0,0.2195,0.22,0.2254,0.2256,0.2257,0.2282,0.2255,0.2286,0.2279,0.2266,0.2278,0.2278,0.2276,0.2276,0.2278,0.2284,0.2284,0.2275,0.2275,0.2275,0.2275,0,0,0,0,0,0,0,0.2193,0.2198,0.2261,0.2255,0.2257,0.2253,0.2256,0.226,0.2269,0.2267,0.2268,0.2279,0.2275,0.2278,0.2278,0.2284,0.2275,0.2275,0.2275,0.2275,0.2327,0.2328,0,0,0,0,0,0,0.2198,0.2196,0.226,0.2262,0.2229,0.2255,0.2259,0.2271,0.227,0.2271,0.2279,0.2278,0.2278,0.2278,0.2278,0.2312,0.2275,0.2275,0.2275,0.2326,0.2327,0.2328,0,0,0,0,0,0,0.2196,0.2204,0.2258,0.2233,0.224,0.2257,0.227,0.2272,0.2279,0.228,0.2279,0.2286,0.2277,0.2277,0.2288,0.2311,0.2275,0.2275,0.2324,0.2326,0.2328,0.2367,0,0,0,0,0,0,0.2194,0.2203,0.221,0.2234,0.2242,0.2282,0.2271,0.2273,0.2288,0.2288,0.2286,0.2285,0.2277,0.2288,0.2289,0.2311,0.2276,0.2323,0.2325,0.2327,0.2364,0.237,0.2375,0,0,0,0,0,0.219,0.2199,0.221,0.2218,0.2253,0.2283,0.2286,0.2294,0.2289,0.2297,0.2296,0.2285,0.2303,0.2289,0.2289,0.2312,0.2321,0.2324,0.2327,0.2362,0.2369,0.2375,0,0,0,0,0,0,0.2156,0.2201,0.2212,0.2232,0.2261,0.2283,0.2292,0.2299,0.2305,0.2302,0.2296,0.2295,0.2318,0.231,0.2294,0.2336,0.2313,0.2316,0.2339,0.2346,0.2351,0.2366,0.2276,0,0,0,0,0,0.2157,0.2178,0.2218,0.2234,0.2252,0.2274,0.2286,0.2295,0.2307,0.2309,0.2311,0.2316,0.233,0.2332,0.2341,0.2358,0.2372,0.2375,0.238,0.2385,0.2399,0.2441,0.2452,0.2337,0.2337,0.2337,0,0,0.2147,0.2175,0.2186,0.2229,0.225,0.2281,0.2279,0.2303,0.2325,0.2308,0.2331,0.2336,0.234,0.2363,0.2373,0.2357,0.2426,0.2388,0.2392,0.2404,0.2445,0.2456,0.2466,0.2339,0.2339,0.2339,0,0,0.2143,0.2168,0.2189,0.222,0.2262,0.2282,0.2293,0.2324,0.2336,0.236,0.2361,0.2381,0.2391,0.2407,0.2414,0.2456,0.2457,0.2457,0.2491,0.2532,0.2542,0.2551,0.2586,0.2598,0.2455,0.2455,0.2455,0,0.2129,0.2167,0.2197,0.223,0.2258,0.2286,0.2316,0.2337,0.2366,0.2385,0.2371,0.2416,0.2417,0.246,0.2476,0.247,0.249,0.2463,0.2539,0.2548,0.2557,0.2591,0.2603,0.2457,0.2457,0.2456,0.2456,0,0.215,0.2182,0.2198,0.2253,0.2283,0.2314,0.2357,0.2383,0.2399,0.2423,0.2468,0.2474,0.2502,0.2508,0.2504,0.2567,0.2562,0.2544,0.2522,0.2571,0.2603,0.2616,0.246,0.2459,0.2459,0.2458,0,0,0.2114,0.2197,0.2203,0.2237,0.2301,0.2327,0.2373,0.2429,0.2463,0.2489,0.2537,0.2567,0.2576,0.2587,0.2589,0.2622,0.2697,0.2611,0.2612,0.2645,0.2791,0.2801,0.2815,0.2692,0.2695,0.2696,0.279,0,0.2124,0.2184,0.2225,0.2281,0.232,0.2367,0.241,0.2459,0.2497,0.2548,0.2578,0.2619,0.2605,0.262,0.2657,0.2691,0.2731,0.2674,0.274,0.2742,0.2745,0.283,0.2788,0.287,0.2802,0.2804,0.2806,0,0.2132,0.2177,0.2231,0.231,0.2331,0.2363,0.244,0.2483,0.2562,0.2595,0.2646,0.2671,0.2737,0.2708,0.2801,0.2765,0.2789,0.2807,0.2811,0.2817,0.2776,0.281,0.2894,0.2844,0.2824,0.2823,0.2821,0,0.2096,0.2179,0.2221,0.225,0.2339,0.2368,0.2414,0.2491,0.2538,0.2626,0.2672,0.2742,0.2788,0.2832,0.2879,0.2846,0.2978,0.2931,0.2963,0.2963,0.2941,0.2935,0.2985,0.3003,0.3002,0.3002,0.3002,0,0.2094,0.2127,0.2206,0.2232,0.2278,0.2349,0.24,0.2461,0.2553,0.262,0.269,0.2766,0.2825,0.2902,0.2921,0.2999,0.3015,0.3002,0.3003,0.2953,0.2948,0.2912,0.2871,0.3006,0.3005,0.3004,0.3004,0,0.2044,0.2102,0.215,0.2237,0.2259,0.2289,0.2381,0.2429,0.2526,0.2618,0.2654,0.2804,0.2921,0.2975,0.3066,0.3064,0.3057,0.3137,0.3077,0.307,0.3034,0.2996,0.2932,0.2838,0.3189,0.319,0.3191,0,0.2026,0.2045,0.2124,0.2148,0.2185,0.2238,0.2279,0.239,0.2453,0.2645,0.2698,0.2856,0.296,0.3114,0.3165,0.3224,0.3109,0.3195,0.3124,0.3062,0.302,0.2868,0.2781,0.3107,0.3107,0.3107,0.3108,0,0.1982,0.2004,0.2041,0.2085,0.2128,0.2178,0.2253,0.2296,0.2443,0.2543,0.2704,0.2809,0.3018,0.3102,0.3206,0.3227,0.307,0.3199,0.3153,0.2994,0.2813,0.2713,0.3008,0.3108,0.3108,0.3108,0.3108,0.3108,0.1929,0.1936,0.1977,0.2015,0.2061,0.2104,0.2116,0.2223,0.2312,0.2454,0.2628,0.2775,0.2996,0.3163,0.3165,0.3183,0.3092,0.3115,0.3086,0.2946,0.2819,0.3123,0.3209,0.3209,0.321,0.321,0.321,0,0.1857,0.1879,0.191,0.1944,0.1957,0.2017,0.2087,0.2097,0.2166,0.237,0.25,0.2757,0.2896,0.3042,0.3186,0.3103,0.2915,0.3013,0.2794,0.2719,0.3034,0.2997,0.3017,0.3017,0.3017,0.3018,0.3018,0.3018,0.182,0.1817,0.1838,0.1828,0.1853,0.1842,0.1862,0.1908,0.203,0.2196,0.2371,0.2551,0.2888,0.3133,0.315,0.3059,0.2791,0.269,0.2612,0.2868,0.2873,0.2879,0.2835,0.2822,0.2821,0.2204,0.22,0.2196]},{"header":{"parameterUnit":"m.s-1","parameterCategory":2,"la1":30.2991,"la2":30.254,"lo1":-89.0895,"lo2":-89.0444,"dy":0.0017,"dx":0.0017,"nx":28,"ny":28,"refTime":"2024-02-17T09:00:00:Z","depth":"0","parameterNumber":3,"parameterNumberName":"V-component_of_CURRENTS"},"data":[0,0,0,0,0,0,0,0,0,0,0,0,0,0,0,0,0,0,0,0,0,0,0,0,0,0,0,0,0,0,0,0,0,0,0,0,0,0,0,0,0,0,0,0,0,0,0,0,0,0,0,0,0,0,0,0,0,0,-0.0366,-0.0366,0,-0.0409,-0.041,-0.041,-0.044,-0.044,-0.044,-0.044,-0.0515,-0.0517,-0.0518,0,0,0,0,0,0,0,0,0,0,0,0,0,-0.0329,-0.033,-0.0366,-0.0366,-0.0367,-0.0409,-0.041,-0.0411,-0.044,-0.044,-0.044,-0.044,-0.0514,-0.0516,-0.0519,0,0,0,0,0,0,0,0,0,0,0,0,0,-0.0356,-0.033,-0.0366,-0.0387,-0.0389,-0.0409,-0.041,-0.0411,-0.044,-0.044,-0.044,-0.0441,-0.0514,-0.0516,-0.0519,-0.0528,0,0,-0.0527,-0.0528,0,0,0,0,0,0,0,0,-0.0354,-0.0357,-0.0383,-0.0385,-0.0388,-0.042,-0.0425,-0.0452,-0.0439,-0.042,-0.044,-0.0441,-0.0486,-0.0491,-0.0497,-0.0532,-0.0535,-0.0527,-0.0529,-0.053,-0.0531,0,0,0,0,0,0,0,-0.0353,-0.0356,-0.0383,-0.0384,-0.0387,-0.0402,-0.0405,-0.043,-0.0451,-0.0422,-0.0424,-0.0429,-0.0487,-0.0495,-0.05,-0.0536,-0.0527,-0.053,-0.0531,-0.0532,-0.0585,-0.0584,0,0,0,0,0,0,-0.0346,-0.0354,-0.0382,-0.0384,-0.0372,-0.0402,-0.0406,-0.0409,-0.045,-0.0456,-0.0429,-0.043,-0.049,-0.0496,-0.0502,-0.0506,-0.053,-0.0532,-0.0534,-0.0585,-0.0585,-0.0584,0,0,0,0,0,0,-0.0345,-0.0348,-0.038,-0.037,-0.0376,-0.0402,-0.0405,-0.041,-0.0416,-0.0455,-0.0462,-0.043,-0.0491,-0.0499,-0.0514,-0.051,-0.0534,-0.0536,-0.0585,-0.0585,-0.0584,-0.0521,0,0,0,0,0,0,-0.0344,-0.0347,-0.0343,-0.037,-0.0376,-0.0381,-0.0405,-0.041,-0.0419,-0.0421,-0.0458,-0.0466,-0.0491,-0.051,-0.0517,-0.0514,-0.0538,-0.0585,-0.0585,-0.0585,-0.0523,-0.0518,-0.0514,0,0,0,0,0,-0.0342,-0.0328,-0.0342,-0.0345,-0.037,-0.0381,-0.0385,-0.0405,-0.0418,-0.0413,-0.0438,-0.0464,-0.0513,-0.0511,-0.052,-0.0518,-0.0585,-0.0585,-0.0585,-0.0525,-0.0519,-0.0514,0,0,0,0,0,0,-0.0302,-0.033,-0.0347,-0.034,-0.0357,-0.0386,-0.0381,-0.04,-0.0416,-0.0418,-0.0458,-0.0466,-0.048,-0.0507,-0.0505,-0.0533,-0.0555,-0.0556,-0.0508,-0.0502,-0.0498,-0.048,-0.054,0,0,0,0,0,-0.0293,-0.0294,-0.0324,-0.0318,-0.0324,-0.0354,-0.036,-0.0376,-0.0396,-0.0404,-0.0432,-0.0462,-0.0485,-0.0499,-0.0523,-0.0535,-0.0561,-0.0542,-0.0537,-0.0533,-0.0525,-0.0565,-0.0563,-0.0583,-0.0583,-0.0583,0,0,-0.0276,-0.0292,-0.0292,-0.031,-0.0325,-0.0324,-0.0358,-0.0362,-0.0362,-0.041,-0.0414,-0.0446,-0.0484,-0.0496,-0.0506,-0.0518,-0.0538,-0.0533,-0.0529,-0.0523,-0.0565,-0.0563,-0.0561,-0.0582,-0.0583,-0.0583,0,0,-0.0238,-0.0256,-0.0245,-0.0257,-0.0277,-0.0296,-0.0295,-0.0323,-0.0335,-0.0346,-0.0381,-0.0407,-0.0442,-0.0469,-0.0487,-0.0474,-0.0512,-0.0485,-0.0449,-0.0488,-0.0487,-0.0486,-0.05,-0.0501,-0.0484,-0.0484,-0.0484,0,-0.0215,-0.0209,-0.0241,-0.0233,-0.0235,-0.0279,-0.0264,-0.0282,-0.0312,-0.0319,-0.0338,-0.0391,-0.0429,-0.0446,-0.0442,-0.0464,-0.0483,-0.0464,-0.0482,-0.0482,-0.0482,-0.0497,-0.0499,-0.0481,-0.0481,-0.0482,-0.0482,0,-0.0174,-0.0168,-0.0159,-0.0167,-0.0173,-0.0167,-0.0199,-0.0207,-0.0232,-0.0257,-0.028,-0.0331,-0.0362,-0.0383,-0.0409,-0.0427,-0.0437,-0.0469,-0.0492,-0.0476,-0.0493,-0.0496,-0.0477,-0.0478,-0.0479,-0.0479,0,0,-0.0123,-0.0129,-0.0125,-0.0116,-0.0139,-0.0135,-0.0137,-0.0149,-0.0145,-0.019,-0.0189,-0.0246,-0.0281,-0.0304,-0.0347,-0.0384,-0.0404,-0.042,-0.0424,-0.0427,-0.0469,-0.0466,-0.047,-0.0439,-0.044,-0.044,-0.0474,0,-0.0079,-0.0047,-0.0065,-0.0031,-0.0017,-0.0053,-0.0047,-0.0067,-0.0095,-0.0106,-0.0172,-0.019,-0.0249,-0.0262,-0.0308,-0.0377,-0.0411,-0.039,-0.0491,-0.0493,-0.0487,-0.0473,-0.0456,-0.0485,-0.0478,-0.0478,-0.0479,0,-0.0032,-0.0017,0.0023,0.0037,0.0041,0.0052,0.0054,0.0052,0.0016,-0.0007,-0.0048,-0.0096,-0.0149,-0.0207,-0.0315,-0.0297,-0.0374,-0.0434,-0.0438,-0.0459,-0.0496,-0.0505,-0.0491,-0.0654,-0.0484,-0.0483,-0.0483,0,0.0021,0.0046,0.0083,0.0086,0.0093,0.0106,0.0106,0.0083,0.0098,0.0055,0.0059,-0.0022,-0.0046,-0.016,-0.0282,-0.03,-0.0398,-0.0445,-0.0513,-0.0513,-0.053,-0.0531,-0.068,-0.0525,-0.0525,-0.0525,-0.0525,0,0.0073,0.0104,0.0111,0.0132,0.0181,0.0161,0.0202,0.0185,0.0182,0.0219,0.0115,0.013,-0.0037,-0.0111,-0.0245,-0.0372,-0.0373,-0.0496,-0.0523,-0.0506,-0.0504,-0.0672,-0.077,-0.0527,-0.0526,-0.0526,-0.0526,0,0.0126,0.0129,0.0177,0.0197,0.0208,0.0241,0.0274,0.0306,0.0282,0.0329,0.0325,0.0252,0.0155,-0.0009,-0.0178,-0.0305,-0.0534,-0.0492,-0.0444,-0.0465,-0.0686,-0.0779,-0.0957,-0.1025,-0.0573,-0.0573,-0.0574,0,0.0155,0.0185,0.023,0.0268,0.0281,0.0323,0.0361,0.0356,0.0404,0.0418,0.046,0.0382,0.0355,0.0106,-0.0137,-0.036,-0.053,-0.0498,-0.0544,-0.0687,-0.0813,-0.0889,-0.0939,-0.0538,-0.0538,-0.0538,-0.0538,0,0.0217,0.0232,0.0272,0.0348,0.0399,0.0458,0.0514,0.0571,0.0591,0.063,0.0687,0.0668,0.0437,0.0228,-0.009,-0.0266,-0.0615,-0.0502,-0.0677,-0.0815,-0.0883,-0.0963,-0.0513,-0.0536,-0.0536,-0.0537,-0.0537,-0.0537,0.0266,0.0307,0.0363,0.0439,0.0503,0.0594,0.0661,0.0737,0.0829,0.0926,0.0892,0.0909,0.0573,0.0142,-0.0127,-0.0599,-0.062,-0.0741,-0.0844,-0.0909,-0.0979,-0.0508,-0.0551,-0.0551,-0.0551,-0.0551,-0.0551,0,0.0328,0.0376,0.0452,0.0546,0.0635,0.0649,0.0772,0.0855,0.0988,0.1087,0.1145,0.1023,0.0588,0.0135,-0.0498,-0.0859,-0.101,-0.107,-0.1193,-0.1229,-0.083,-0.0833,-0.0906,-0.0906,-0.0906,-0.0906,-0.0905,-0.0905,0.0364,0.0449,0.0488,0.0645,0.0717,0.0845,0.0924,0.1048,0.115,0.1297,0.1348,0.1345,0.1013,-0.0187,-0.1028,-0.1236,-0.1486,-0.1553,-0.1684,-0.1435,-0.1412,-0.1391,-0.1418,-0.1612,-0.1613,-0.2028,-0.2033,-0.2036]}],[{"header":{"parameterUnit":"m.s-1","parameterCategory":2,"la1":30.2991,"la2":30.254,"lo1":-89.0895,"lo2":-89.0444,"dy":0.0017,"dx":0.0017,"nx":28,"ny":28,"refTime":"2024-02-17T09:00:00:Z","depth":"2","parameterNumber":2,"parameterNumberName":"U-component_of_CURRENTS"},"data":[0,0,0,0,0,0,0,0,0,0,0,0,0,0,0,0,0,0,0,0,0,0,0,0,0,0,0,0,0,0,0,0,0,0,0,0,0,0,0,0,0,0,0,0,0,0,0,0,0,0,0,0,0,0,0,0,0,0,0.2023,0.2024,0,0.2067,0.2067,0.2067,0.2071,0.2071,0.2071,0.2071,0.2078,0.2079,0.2079,0,0,0,0,0,0,0,0,0,0,0,0,0,0.1937,0.1938,0.2023,0.2024,0.2025,0.2067,0.2067,0.2067,0.2071,0.2071,0.2071,0.2071,0.2078,0.2079,0.2079,0,0,0,0,0,0,0,0,0,0,0,0,0,0.1974,0.1939,0.2023,0.2034,0.2036,0.2067,0.2067,0.2067,0.2071,0.2071,0.2071,0.207,0.2078,0.2078,0.2079,0.2087,0,0,0.2081,0.2081,0,0,0,0,0,0,0,0,0.1972,0.1976,0.2032,0.2034,0.2036,0.2066,0.204,0.2073,0.2071,0.2054,0.2071,0.207,0.2073,0.2074,0.2078,0.2087,0.2087,0.2081,0.2081,0.2081,0.2081,0,0,0,0,0,0,0,0.1969,0.1975,0.2037,0.2033,0.2035,0.2035,0.204,0.2046,0.2061,0.2056,0.2057,0.2067,0.2074,0.2078,0.2079,0.2087,0.2081,0.2081,0.2081,0.2082,0.2142,0.2144,0,0,0,0,0,0,0.1971,0.1972,0.2036,0.2038,0.2006,0.2037,0.2042,0.2054,0.2062,0.2064,0.2067,0.2067,0.2077,0.2078,0.2079,0.2121,0.2081,0.2082,0.2082,0.2141,0.2143,0.2144,0,0,0,0,0,0,0.1969,0.1977,0.2034,0.2009,0.2017,0.2039,0.2052,0.2055,0.2068,0.2072,0.2073,0.2079,0.2077,0.2078,0.2097,0.212,0.2082,0.2082,0.214,0.2142,0.2143,0.2183,0,0,0,0,0,0,0.1967,0.1976,0.1985,0.2009,0.2018,0.206,0.2053,0.2056,0.2076,0.2076,0.2082,0.2082,0.2077,0.2096,0.2097,0.212,0.2083,0.2138,0.214,0.2143,0.218,0.2186,0.2192,0,0,0,0,0,0.1963,0.1975,0.1985,0.1993,0.203,0.2061,0.2065,0.2078,0.2076,0.2087,0.2093,0.2082,0.2113,0.2097,0.2098,0.2122,0.2137,0.214,0.2143,0.2178,0.2185,0.2191,0,0,0,0,0,0,0.1938,0.1978,0.1989,0.2011,0.2039,0.2063,0.2075,0.2084,0.2098,0.2098,0.2095,0.2096,0.2123,0.2118,0.2102,0.2148,0.2124,0.2128,0.2151,0.2158,0.2163,0.2174,0.2083,0,0,0,0,0,0.1939,0.1961,0.1997,0.2015,0.2032,0.2055,0.2069,0.2082,0.2098,0.2104,0.211,0.2119,0.2136,0.2143,0.2153,0.2175,0.2185,0.2192,0.2198,0.2203,0.2213,0.2251,0.2261,0.2154,0.2154,0.2154,0,0,0.1933,0.196,0.1971,0.2012,0.2033,0.2061,0.2062,0.209,0.2114,0.2103,0.2131,0.2138,0.2147,0.2174,0.2186,0.2173,0.224,0.2206,0.221,0.2219,0.2255,0.2265,0.2275,0.2156,0.2155,0.2155,0,0,0.1933,0.1958,0.1978,0.2008,0.2049,0.2068,0.208,0.2113,0.2128,0.2158,0.216,0.2185,0.2201,0.2218,0.2227,0.2271,0.2269,0.2274,0.2309,0.2345,0.2355,0.2363,0.2392,0.2403,0.2275,0.2275,0.2275,0,0.1924,0.1959,0.1987,0.2018,0.2046,0.2073,0.2102,0.2126,0.216,0.218,0.2171,0.2221,0.2225,0.227,0.2288,0.2284,0.2302,0.228,0.2353,0.2361,0.2369,0.2397,0.2408,0.2278,0.2277,0.2277,0.2277,0,0.1945,0.1976,0.1991,0.2042,0.2071,0.2103,0.2145,0.2173,0.2192,0.2218,0.2266,0.2278,0.2309,0.2316,0.2316,0.2376,0.2371,0.2355,0.2334,0.2382,0.2409,0.2419,0.2281,0.228,0.2279,0.2279,0,0,0.1915,0.1991,0.1997,0.2027,0.2091,0.2115,0.2163,0.2216,0.2252,0.2283,0.2331,0.2366,0.2378,0.239,0.2396,0.2429,0.2497,0.242,0.2421,0.2447,0.2581,0.2572,0.2582,0.2495,0.2497,0.2499,0.2579,0,0.1925,0.1981,0.2019,0.2072,0.2106,0.2154,0.2196,0.2247,0.2288,0.2339,0.2373,0.2416,0.2405,0.2425,0.246,0.2492,0.2528,0.2477,0.2533,0.2535,0.2519,0.2595,0.2415,0.2471,0.2589,0.2591,0.2592,0,0.1932,0.1974,0.2024,0.2098,0.2117,0.215,0.2226,0.2269,0.2349,0.2385,0.2438,0.2465,0.2531,0.2505,0.259,0.256,0.258,0.2596,0.2599,0.2585,0.2547,0.2443,0.2486,0.261,0.2608,0.2607,0.2606,0,0.1898,0.1975,0.2014,0.2041,0.2126,0.2156,0.2201,0.2279,0.2326,0.2417,0.2465,0.2533,0.258,0.2619,0.2662,0.2633,0.2749,0.2707,0.2716,0.2715,0.2571,0.2554,0.2768,0.2768,0.2767,0.2767,0.2767,0,0.1894,0.1925,0.2,0.2023,0.207,0.2138,0.2192,0.2253,0.2345,0.241,0.2484,0.2553,0.2614,0.2683,0.2699,0.2758,0.2782,0.2748,0.2747,0.258,0.2564,0.2685,0.2674,0.277,0.2769,0.2769,0.2768,0,0.1847,0.1899,0.1945,0.2029,0.2052,0.2084,0.2178,0.2227,0.2324,0.2413,0.245,0.2589,0.2693,0.2747,0.2825,0.2813,0.2857,0.2864,0.2669,0.2644,0.2784,0.2775,0.2884,0.2884,0.2885,0.2885,0.2886,0,0.1828,0.1846,0.1924,0.1948,0.1983,0.204,0.2085,0.2195,0.2254,0.2433,0.248,0.2626,0.2711,0.284,0.2864,0.2905,0.291,0.274,0.2653,0.2815,0.2802,0.2792,0.2782,0.2472,0.2469,0.2466,0.2464,0,0.1786,0.181,0.1845,0.189,0.1936,0.1987,0.2062,0.2101,0.2242,0.2334,0.2471,0.2557,0.2723,0.2712,0.2789,0.2777,0.2718,0.2692,0.2922,0.2479,0.2435,0.242,0.2422,0.2442,0.2444,0.2446,0.2447,0.2448,0.174,0.1748,0.1789,0.1827,0.1875,0.1916,0.1929,0.2028,0.2108,0.2224,0.237,0.2449,0.2535,0.258,0.2536,0.2514,0.2681,0.2548,0.2552,0.2559,0.2506,0.2466,0.2468,0.2471,0.2473,0.2474,0.2476,0,0.1677,0.1697,0.1727,0.1762,0.1776,0.1837,0.1901,0.1904,0.1961,0.2113,0.221,0.2118,0.2166,0.2239,0.2195,0.2224,0.2152,0.2119,0.2,0.2028,0.2051,0.1965,0.1788,0.1785,0.1782,0.178,0,0,0.1644,0.1641,0.1659,0.1651,0.1678,0.1672,0.1688,0.1719,0.18,0.1833,0.1882,0.2084,0.2205,0.196,0.1962,0.1865,0.1914,0.1798,0.2366,0.2257,0.2275,0.2337,0.2244,0,0,0,0,0]},{"header":{"parameterUnit":"m.s-1","parameterCategory":2,"la1":30.2991,"la2":30.254,"lo1":-89.0895,"lo2":-89.0444,"dy":0.0017,"dx":0.0017,"nx":28,"ny":28,"refTime":"2024-02-17T09:00:00:Z","depth":"2","parameterNumber":3,"parameterNumberName":"V-component_of_CURRENTS"},"data":[0,0,0,0,0,0,0,0,0,0,0,0,0,0,0,0,0,0,0,0,0,0,0,0,0,0,0,0,0,0,0,0,0,0,0,0,0,0,0,0,0,0,0,0,0,0,0,0,0,0,0,0,0,0,0,0,0,0,-0.0117,-0.0118,0,-0.0169,-0.0169,-0.017,-0.0205,-0.0206,-0.0206,-0.0206,-0.0273,-0.0275,-0.0276,0,0,0,0,0,0,0,0,0,0,0,0,0,-0.0073,-0.0074,-0.0117,-0.0118,-0.0119,-0.0168,-0.0169,-0.017,-0.0205,-0.0206,-0.0206,-0.0206,-0.0273,-0.0275,-0.0276,0,0,0,0,0,0,0,0,0,0,0,0,0,-0.0105,-0.0074,-0.0117,-0.0143,-0.0145,-0.0168,-0.0169,-0.017,-0.0205,-0.0206,-0.0206,-0.0207,-0.0272,-0.0274,-0.0277,-0.0282,0,0,-0.0284,-0.0285,0,0,0,0,0,0,0,0,-0.0103,-0.0107,-0.0138,-0.0141,-0.0144,-0.0181,-0.0178,-0.0208,-0.0205,-0.0182,-0.0206,-0.0207,-0.0244,-0.0248,-0.0257,-0.0285,-0.0288,-0.0284,-0.0285,-0.0286,-0.0287,0,0,0,0,0,0,0,-0.0101,-0.0105,-0.0138,-0.0139,-0.0142,-0.0159,-0.0164,-0.0184,-0.021,-0.0184,-0.0187,-0.0193,-0.0245,-0.0254,-0.0258,-0.0289,-0.0284,-0.0286,-0.0287,-0.0288,-0.0333,-0.0333,0,0,0,0,0,0,-0.0093,-0.0102,-0.0136,-0.0139,-0.0124,-0.0159,-0.0165,-0.0169,-0.021,-0.0216,-0.0192,-0.0194,-0.025,-0.0256,-0.0261,-0.0265,-0.0286,-0.0288,-0.029,-0.0333,-0.0333,-0.0333,0,0,0,0,0,0,-0.0092,-0.0096,-0.0134,-0.0122,-0.0128,-0.016,-0.0164,-0.0169,-0.018,-0.0216,-0.0223,-0.0197,-0.0251,-0.0258,-0.0274,-0.0268,-0.0289,-0.0291,-0.0333,-0.0333,-0.0333,-0.0276,0,0,0,0,0,0,-0.009,-0.0095,-0.0093,-0.0122,-0.0129,-0.014,-0.0164,-0.017,-0.0183,-0.0186,-0.0222,-0.0229,-0.0252,-0.0271,-0.0277,-0.0272,-0.0293,-0.0333,-0.0333,-0.0333,-0.0278,-0.0274,-0.027,0,0,0,0,0,-0.0089,-0.0079,-0.0092,-0.0096,-0.0126,-0.014,-0.0144,-0.0168,-0.0182,-0.0181,-0.0206,-0.0228,-0.0273,-0.0272,-0.0279,-0.0275,-0.0334,-0.0333,-0.0333,-0.028,-0.0275,-0.027,0,0,0,0,0,0,-0.0055,-0.0083,-0.0098,-0.0096,-0.0115,-0.0145,-0.0145,-0.0165,-0.0184,-0.0187,-0.0223,-0.0231,-0.0245,-0.0267,-0.0266,-0.0288,-0.0308,-0.0309,-0.0265,-0.0261,-0.0257,-0.024,-0.0295,0,0,0,0,0,-0.0047,-0.005,-0.0079,-0.0077,-0.0085,-0.0116,-0.0125,-0.0141,-0.0164,-0.0173,-0.02,-0.0228,-0.0248,-0.026,-0.0282,-0.0292,-0.0316,-0.0295,-0.0291,-0.0287,-0.0279,-0.0313,-0.0312,-0.0331,-0.0331,-0.0331,0,0,-0.0034,-0.0049,-0.0051,-0.0071,-0.0087,-0.0087,-0.0122,-0.013,-0.013,-0.0177,-0.0184,-0.0215,-0.0248,-0.0259,-0.0267,-0.0277,-0.0293,-0.0287,-0.0283,-0.0277,-0.0313,-0.0311,-0.0309,-0.0331,-0.0331,-0.0331,0,0,-0.0002,-0.0021,-0.0011,-0.0024,-0.0045,-0.0063,-0.0064,-0.0094,-0.0108,-0.0121,-0.0154,-0.0179,-0.0211,-0.0233,-0.0249,-0.0237,-0.0272,-0.0247,-0.0212,-0.0245,-0.0244,-0.0243,-0.0264,-0.0266,-0.0244,-0.0244,-0.0244,0,0.0016,0.0022,-0.0009,-0.0002,-0.0005,-0.0048,-0.0035,-0.0054,-0.0086,-0.0093,-0.0115,-0.0166,-0.0198,-0.021,-0.0208,-0.0227,-0.0248,-0.0225,-0.0239,-0.0239,-0.0239,-0.0261,-0.0263,-0.0241,-0.0241,-0.0242,-0.0242,0,0.0053,0.0059,0.0065,0.0059,0.0052,0.0057,0.0026,0.0016,-0.0011,-0.0035,-0.0059,-0.0107,-0.0136,-0.0154,-0.0178,-0.019,-0.0205,-0.023,-0.0248,-0.0233,-0.0258,-0.0261,-0.0237,-0.0238,-0.0239,-0.024,0,0,0.0095,0.0093,0.0095,0.0107,0.0085,0.0087,0.0085,0.0073,0.0076,0.003,0.0029,-0.0023,-0.0058,-0.0078,-0.0118,-0.0149,-0.017,-0.0184,-0.0187,-0.0198,-0.0234,-0.0244,-0.0249,-0.0198,-0.0199,-0.0199,-0.0249,0,0.0135,0.0168,0.0152,0.0185,0.02,0.0165,0.0171,0.0152,0.0122,0.0109,0.0049,0.0029,-0.0027,-0.004,-0.008,-0.0146,-0.0177,-0.0154,-0.0253,-0.0255,-0.0261,-0.0253,-0.0231,-0.0274,-0.0252,-0.0253,-0.0253,0,0.0177,0.0195,0.0234,0.0252,0.0256,0.0265,0.0266,0.0265,0.0229,0.0204,0.0164,0.0116,0.0066,0.0014,-0.009,-0.0072,-0.0145,-0.0202,-0.0206,-0.0236,-0.0271,-0.0288,-0.0281,-0.026,-0.0259,-0.0259,-0.0258,0,0.0226,0.0253,0.0289,0.0294,0.0304,0.0315,0.0315,0.0292,0.0305,0.0262,0.0263,0.0186,0.0158,0.0053,-0.0067,-0.0079,-0.0181,-0.0216,-0.0293,-0.0295,-0.0305,-0.0307,-0.029,-0.029,-0.029,-0.029,-0.029,0,0.0275,0.0305,0.0315,0.0335,0.0382,0.0365,0.0402,0.0386,0.0381,0.0411,0.0315,0.0321,0.0165,0.0088,-0.0036,-0.0167,-0.0162,-0.0281,-0.0308,-0.0284,-0.0283,-0.0298,-0.0298,-0.0292,-0.0291,-0.0291,-0.0291,0,0.0322,0.0327,0.0374,0.0396,0.0406,0.0437,0.0468,0.0498,0.0473,0.051,0.0504,0.0428,0.0324,0.0167,0.0005,-0.0114,-0.0248,-0.0298,-0.0252,-0.0273,-0.0347,-0.0344,-0.0388,-0.0389,-0.039,-0.039,-0.0391,0,0.0349,0.0378,0.0422,0.0456,0.0467,0.0508,0.0543,0.0542,0.0584,0.0585,0.0619,0.0531,0.0487,0.0238,0.001,-0.0205,-0.0239,-0.0327,-0.0354,-0.0335,-0.0357,-0.0353,-0.0349,-0.0346,-0.0346,-0.0346,-0.0346,0,0.0405,0.0417,0.0456,0.0525,0.0571,0.0629,0.068,0.0731,0.0746,0.0773,0.0804,0.0768,0.0533,0.0319,0.0013,-0.0138,-0.0294,-0.0335,-0.0329,-0.0322,-0.0298,-0.0319,-0.0316,-0.0346,-0.0346,-0.0346,-0.0346,-0.0346,0.0446,0.0483,0.0534,0.0602,0.0662,0.0743,0.0804,0.0868,0.0944,0.1002,0.0961,0.0917,0.0657,0.0277,-0.0003,-0.0298,-0.0287,-0.0386,-0.0385,-0.0383,-0.0367,-0.0346,-0.0399,-0.0399,-0.0399,-0.0399,-0.04,0,0.0497,0.0538,0.0608,0.0692,0.0771,0.0788,0.0897,0.0964,0.1065,0.1112,0.1133,0.0909,0.0644,0.0339,-0.0094,-0.0354,-0.0382,-0.0436,-0.041,-0.0407,-0.0405,-0.039,-0.0428,-0.0429,-0.043,-0.0431,0,0,0.0526,0.06,0.0635,0.077,0.0833,0.0945,0.1014,0.1108,0.1169,0.1221,0.1205,0.114,0.0759,0.0449,0.0081,-0.0172,-0.0231,-0.0226,-0.0174,-0.0097,-0.0092,-0.0348,-0.0317,0,0,0,0,0]}],[{"header":{"parameterUnit":"m.s-1","parameterCategory":2,"la1":30.2991,"la2":30.254,"lo1":-89.0895,"lo2":-89.0444,"dy":0.0017,"dx":0.0017,"nx":28,"ny":28,"refTime":"2024-02-17T09:00:00:Z","depth":"4","parameterNumber":2,"parameterNumberName":"U-component_of_CURRENTS"},"data":[0,0,0,0,0,0,0,0,0,0,0,0,0,0,0,0,0,0,0,0,0,0,0,0,0,0,0,0,0,0,0,0,0,0,0,0,0,0,0,0,0,0,0,0,0,0,0,0,0,0,0,0,0,0,0,0,0,0,0.1359,0.136,0,0.1438,0.1438,0.1439,0.1494,0.1495,0.1495,0.1496,0.157,0.1571,0.1573,0,0,0,0,0,0,0,0,0,0,0,0,0,0.1256,0.1257,0.1359,0.136,0.1361,0.1438,0.1439,0.1439,0.1494,0.1495,0.1495,0.1496,0.157,0.1571,0.1573,0,0,0,0,0,0,0,0,0,0,0,0,0,0.1312,0.1258,0.1359,0.1399,0.1403,0.1437,0.1439,0.144,0.1494,0.1495,0.1496,0.1496,0.1569,0.1571,0.1573,0.1569,0,0,0.158,0.1581,0,0,0,0,0,0,0,0,0.1309,0.1316,0.1392,0.1396,0.1401,0.1459,0.143,0.1483,0.1494,0.1458,0.1496,0.1497,0.1533,0.1538,0.1548,0.1572,0.1576,0.158,0.1581,0.1582,0.1583,0,0,0,0,0,0,0,0.1305,0.1313,0.1388,0.1393,0.1399,0.1413,0.1422,0.144,0.1488,0.1461,0.1465,0.1477,0.1535,0.1546,0.1551,0.1577,0.158,0.1582,0.1583,0.1584,0.1686,0.1687,0,0,0,0,0,0,0.1298,0.1309,0.1386,0.1391,0.1359,0.1415,0.1424,0.1438,0.1488,0.1497,0.1476,0.1479,0.1542,0.1548,0.1553,0.1632,0.1582,0.1584,0.1585,0.1684,0.1686,0.1688,0,0,0,0,0,0,0.1296,0.1304,0.1383,0.1353,0.1364,0.1416,0.143,0.1439,0.148,0.15,0.1509,0.1511,0.1543,0.155,0.16,0.1633,0.1585,0.1587,0.1683,0.1685,0.1687,0.1738,0,0,0,0,0,0,0.1292,0.1303,0.1324,0.1353,0.1366,0.1422,0.143,0.144,0.1484,0.149,0.1532,0.1538,0.1544,0.1597,0.1602,0.1635,0.1589,0.1681,0.1684,0.1686,0.1735,0.1742,0.1748,0,0,0,0,0,0.1289,0.1308,0.1324,0.1334,0.1388,0.1423,0.1431,0.1469,0.1485,0.1508,0.1541,0.1539,0.1617,0.16,0.1606,0.164,0.168,0.1683,0.1686,0.1732,0.174,0.1748,0,0,0,0,0,0,0.1276,0.1317,0.1335,0.1368,0.1402,0.1433,0.1462,0.1484,0.1527,0.1543,0.1558,0.1566,0.1622,0.1623,0.1603,0.1677,0.1648,0.1652,0.1681,0.1689,0.1695,0.1694,0.1591,0,0,0,0,0,0.1282,0.1311,0.1346,0.1378,0.1396,0.1434,0.1458,0.1485,0.152,0.1542,0.1571,0.1603,0.1633,0.1656,0.168,0.172,0.1722,0.1745,0.1751,0.1757,0.1761,0.1788,0.1797,0.1698,0.1698,0.1698,0,0,0.1286,0.1314,0.1332,0.1378,0.1409,0.144,0.1452,0.1498,0.1533,0.1542,0.1605,0.1629,0.1649,0.1698,0.1722,0.1708,0.179,0.1761,0.1766,0.1766,0.1792,0.1802,0.181,0.17,0.17,0.17,0,0,0.1298,0.1335,0.1359,0.1391,0.1444,0.1467,0.1485,0.1533,0.1567,0.1622,0.164,0.1685,0.1731,0.1754,0.1769,0.1825,0.1823,0.1837,0.1872,0.1899,0.1907,0.1915,0.1941,0.195,0.1841,0.1841,0.1841,0,0.1304,0.134,0.1373,0.1405,0.1437,0.148,0.1513,0.155,0.1611,0.1642,0.1651,0.1735,0.1755,0.1811,0.1836,0.1841,0.1855,0.184,0.1908,0.1915,0.1921,0.1946,0.1955,0.1844,0.1844,0.1843,0.1843,0,0.1326,0.1367,0.1387,0.1441,0.1477,0.1518,0.1566,0.1613,0.1658,0.1692,0.1767,0.1799,0.1847,0.1864,0.1872,0.1933,0.1929,0.1911,0.1885,0.1934,0.1957,0.1966,0.1848,0.1847,0.1846,0.1845,0,0,0.1306,0.1387,0.1397,0.1431,0.1504,0.1532,0.1596,0.1659,0.1707,0.1768,0.1828,0.1888,0.1913,0.1932,0.195,0.1978,0.2044,0.1973,0.1973,0.1996,0.2112,0.1997,0.1996,0.2041,0.2043,0.2044,0.2114,0,0.1318,0.1377,0.1418,0.1483,0.1516,0.1578,0.1631,0.1697,0.1755,0.1823,0.1872,0.1936,0.1936,0.1974,0.2004,0.2039,0.2068,0.2027,0.2064,0.2066,0.1954,0.2002,0.2049,0.212,0.2122,0.2124,0.2125,0,0.1321,0.1364,0.1424,0.1508,0.153,0.1577,0.1671,0.1725,0.182,0.1872,0.194,0.198,0.2056,0.2038,0.2117,0.2095,0.2112,0.2125,0.2128,0.2005,0.1966,0.206,0.214,0.2139,0.2138,0.2137,0.2136,0,0.128,0.1367,0.1416,0.1447,0.1544,0.1591,0.1649,0.1743,0.1799,0.1909,0.1965,0.2043,0.2102,0.2135,0.2179,0.2159,0.225,0.2219,0.2128,0.212,0.218,0.2171,0.2261,0.2261,0.2261,0.2261,0.2261,0,0.1263,0.1307,0.1407,0.1434,0.1501,0.1577,0.1655,0.1728,0.1832,0.1897,0.199,0.205,0.2131,0.2192,0.2207,0.22,0.2275,0.2142,0.213,0.2201,0.2194,0.2186,0.2177,0.2263,0.2263,0.2262,0.2262,0,0.1205,0.1272,0.1334,0.1444,0.1483,0.1531,0.1655,0.1708,0.1821,0.191,0.1953,0.2082,0.216,0.2223,0.2287,0.2228,0.2236,0.2212,0.2304,0.2296,0.2081,0.2074,0.2108,0.2104,0.2101,0.2099,0.2097,0,0.1177,0.1204,0.1324,0.1363,0.1419,0.1503,0.1562,0.1689,0.1743,0.1911,0.1945,0.2072,0.214,0.2142,0.2215,0.2235,0.2206,0.219,0.211,0.208,0.2066,0.2063,0.206,0.2092,0.2091,0.2091,0.209,0,0.1122,0.1175,0.1226,0.1304,0.1375,0.1442,0.1535,0.1563,0.1704,0.1825,0.1888,0.1934,0.202,0.2067,0.2102,0.2109,0.2187,0.2158,0.2163,0.2088,0.2061,0.205,0.205,0.208,0.2081,0.2082,0.2083,0,0.1081,0.11,0.1172,0.1233,0.1313,0.1354,0.1414,0.1482,0.1551,0.1726,0.1744,0.1882,0.1998,0.2004,0.204,0.2039,0.2,0.1916,0.1933,0.1945,0.186,0.18,0.1734,0,0,0,0,0,0.1032,0.1047,0.1096,0.1155,0.1229,0.1279,0.1386,0.1448,0.158,0.158,0.1653,0.1724,0.1782,0.1858,0.1825,0.1976,0.2011,0.1929,0.1924,0.2023,0.2035,0.1949,0,0,0,0,0,0,0.0998,0.104,0.1063,0.1076,0.1102,0.1174,0.1238,0.1331,0.1333,0.1471,0.1514,0.1619,0.1705,0.1783,0.1792,0.1814,0.1775,0.2015,0.2011,0.2016,0.2027,0.2036,0.1952,0,0,0,0,0]},{"header":{"parameterUnit":"m.s-1","parameterCategory":2,"la1":30.2991,"la2":30.254,"lo1":-89.0895,"lo2":-89.0444,"dy":0.0017,"dx":0.0017,"nx":28,"ny":28,"refTime":"2024-02-17T09:00:00:Z","depth":"4","parameterNumber":3,"parameterNumberName":"V-component_of_CURRENTS"},"data":[0,0,0,0,0,0,0,0,0,0,0,0,0,0,0,0,0,0,0,0,0,0,0,0,0,0,0,0,0,0,0,0,0,0,0,0,0,0,0,0,0,0,0,0,0,0,0,0,0,0,0,0,0,0,0,0,0,0,0.0029,0.0029,0,-0.0015,-0.0015,-0.0016,-0.0046,-0.0047,-0.0047,-0.0047,-0.01,-0.0101,-0.0102,0,0,0,0,0,0,0,0,0,0,0,0,0,0.0067,0.0067,0.0029,0.0029,0.0028,-0.0015,-0.0015,-0.0016,-0.0046,-0.0047,-0.0047,-0.0047,-0.0099,-0.0101,-0.0102,0,0,0,0,0,0,0,0,0,0,0,0,0,0.004,0.0066,0.0029,0.0008,0.0005,-0.0014,-0.0015,-0.0016,-0.0046,-0.0047,-0.0047,-0.0047,-0.0099,-0.0101,-0.0102,-0.0106,0,0,-0.0108,-0.0108,0,0,0,0,0,0,0,0,0.0041,0.0038,0.0011,0.0009,0.0006,-0.0025,-0.0021,-0.0047,-0.0046,-0.0027,-0.0047,-0.0048,-0.0075,-0.0079,-0.0086,-0.0108,-0.0111,-0.0108,-0.0109,-0.011,-0.011,0,0,0,0,0,0,0,0.0043,0.004,0.0012,0.0011,0.0008,-0.0007,-0.0011,-0.0026,-0.0049,-0.0028,-0.0031,-0.0036,-0.0077,-0.0085,-0.0088,-0.0111,-0.0108,-0.0109,-0.011,-0.0111,-0.0145,-0.0145,0,0,0,0,0,0,0.005,0.0042,0.0013,0.001,0.0023,-0.0007,-0.0011,-0.0015,-0.0048,-0.0054,-0.0035,-0.0037,-0.0081,-0.0086,-0.009,-0.0094,-0.011,-0.0111,-0.0112,-0.0145,-0.0145,-0.0145,0,0,0,0,0,0,0.0051,0.0048,0.0015,0.0025,0.002,-0.0007,-0.0011,-0.0016,-0.0025,-0.0053,-0.0059,-0.004,-0.0082,-0.0087,-0.0103,-0.0096,-0.0112,-0.0114,-0.0145,-0.0145,-0.0145,-0.0103,0,0,0,0,0,0,0.0052,0.0049,0.0049,0.0026,0.002,0.0007,-0.001,-0.0016,-0.0028,-0.003,-0.006,-0.0065,-0.0083,-0.01,-0.0105,-0.0099,-0.0115,-0.0145,-0.0145,-0.0145,-0.0105,-0.0101,-0.0099,0,0,0,0,0,0.0054,0.0059,0.005,0.0046,0.0021,0.0008,0.0003,-0.0017,-0.0027,-0.0028,-0.0049,-0.0064,-0.0101,-0.0101,-0.0107,-0.0101,-0.0146,-0.0145,-0.0145,-0.0106,-0.0102,-0.0099,0,0,0,0,0,0,0.0076,0.0055,0.0045,0.0043,0.0028,0.0002,0.0001,-0.0015,-0.0032,-0.0034,-0.0063,-0.0069,-0.0081,-0.0097,-0.0096,-0.0111,-0.0126,-0.0126,-0.0094,-0.0091,-0.0088,-0.0073,-0.0117,0,0,0,0,0,0.0081,0.008,0.0057,0.0057,0.005,0.0025,0.0017,0.0004,-0.0015,-0.0023,-0.0045,-0.0067,-0.0083,-0.0091,-0.011,-0.0116,-0.0136,-0.0116,-0.0113,-0.0111,-0.0102,-0.0128,-0.0127,-0.0143,-0.0143,-0.0143,0,0,0.009,0.0079,0.0078,0.0061,0.0048,0.0048,0.002,0.0012,0.0012,-0.0025,-0.0033,-0.0059,-0.0084,-0.0092,-0.0099,-0.0104,-0.0118,-0.011,-0.0107,-0.0101,-0.0128,-0.0126,-0.0125,-0.0143,-0.0143,-0.0143,0,0,0.0112,0.0098,0.0105,0.0095,0.0079,0.0065,0.0065,0.0039,0.0028,0.0017,-0.001,-0.003,-0.0056,-0.0072,-0.0084,-0.0075,-0.0104,-0.0082,-0.0052,-0.0077,-0.0076,-0.0075,-0.0103,-0.0105,-0.0077,-0.0077,-0.0077,0,0.0124,0.013,0.0106,0.0111,0.011,0.0077,0.0087,0.0072,0.0045,0.0039,0.0021,-0.002,-0.0045,-0.0053,-0.0052,-0.0067,-0.0088,-0.0062,-0.0072,-0.0072,-0.0072,-0.0101,-0.0103,-0.0075,-0.0076,-0.0076,-0.0076,0,0.015,0.0156,0.016,0.0158,0.0153,0.0156,0.0133,0.0125,0.0105,0.0086,0.0066,0.0028,0.0005,-0.0008,-0.0027,-0.0035,-0.0053,-0.0068,-0.0079,-0.0067,-0.0099,-0.0102,-0.0072,-0.0073,-0.0074,-0.0074,0,0,0.0176,0.0179,0.0181,0.0193,0.0179,0.018,0.018,0.0172,0.0174,0.0137,0.0136,0.0096,0.0068,0.0054,0.0022,0.0,-0.0022,-0.0028,-0.003,-0.0051,-0.0081,-0.0089,-0.0094,-0.004,-0.004,-0.004,-0.0105,0,0.0205,0.0233,0.0223,0.0252,0.0264,0.0241,0.0248,0.0234,0.0211,0.0199,0.0154,0.0138,0.0094,0.0084,0.0054,-0.0003,-0.0029,-0.0004,-0.0093,-0.0095,-0.01,-0.0097,-0.0041,-0.0107,-0.0108,-0.0109,-0.0109,0,0.0233,0.025,0.0284,0.0306,0.0309,0.0319,0.0324,0.0324,0.0296,0.0278,0.0246,0.0206,0.0167,0.0129,0.0039,0.0056,-0.0005,-0.0053,-0.0057,-0.0078,-0.0109,-0.0122,-0.0116,-0.0116,-0.0115,-0.0115,-0.0114,0,0.0266,0.0293,0.0326,0.0331,0.0346,0.0359,0.0364,0.0348,0.0359,0.0326,0.0326,0.0263,0.0238,0.0153,0.0049,0.0044,-0.0053,-0.0074,-0.014,-0.0142,-0.0134,-0.0135,-0.0134,-0.0134,-0.0134,-0.0134,-0.0134,0,0.0298,0.0325,0.0345,0.0363,0.0407,0.0399,0.0432,0.0424,0.0422,0.0439,0.037,0.0364,0.0243,0.0171,0.0069,-0.0046,-0.0042,-0.0132,-0.0157,-0.0116,-0.0114,-0.0137,-0.0137,-0.0136,-0.0136,-0.0135,-0.0135,0,0.0324,0.0337,0.038,0.0409,0.0423,0.0452,0.0488,0.051,0.0497,0.0516,0.0513,0.0444,0.0343,0.0215,0.0076,-0.0012,-0.0125,-0.0167,-0.0112,-0.0133,-0.0204,-0.02,-0.0246,-0.0246,-0.0247,-0.0248,-0.0248,0,0.0339,0.0364,0.0415,0.0447,0.0462,0.0504,0.0536,0.0546,0.0572,0.0564,0.058,0.0496,0.043,0.0233,0.0087,-0.0109,-0.0139,-0.0201,-0.0205,-0.0194,-0.0214,-0.0209,-0.0205,-0.0249,-0.0249,-0.0249,-0.025,0,0.0369,0.0387,0.0422,0.0487,0.0531,0.0583,0.0628,0.0656,0.0668,0.0663,0.0638,0.0529,0.0413,0.0244,0.0091,-0.0051,-0.0163,-0.0208,-0.0208,-0.0213,-0.0199,-0.0217,-0.0212,-0.0252,-0.0252,-0.0251,-0.0251,0,0.039,0.0419,0.0466,0.0523,0.0585,0.064,0.0661,0.0692,0.0717,0.0708,0.0698,0.0563,0.0488,0.0274,0.0134,-0.0008,-0.005,-0.0099,-0.0105,-0.0105,-0.005,-0.0012,-0.0023,0,0,0,0,0,0.0407,0.0439,0.0497,0.0559,0.0623,0.0659,0.0716,0.0732,0.0748,0.0742,0.0723,0.0613,0.04,0.0308,0.0166,0.0106,-0.0084,-0.0067,-0.0146,-0.0264,-0.0262,-0.0223,0,0,0,0,0,0,0.0416,0.047,0.0497,0.0579,0.0627,0.0699,0.0737,0.0749,0.0746,0.0739,0.0633,0.0576,0.0372,0.0486,0.0164,0.0119,0.0048,-0.0166,-0.0169,-0.0266,-0.0263,-0.0261,-0.0221,0,0,0,0,0]}]]